Belmar-Farmingdale, NJ

12:49 AM EST on December 10, 2019 (GMT -0500)
Allaire

Weather History for KBLM - October, 2019

Change the Weather History Date:

Sunday, October 13, 2019

  Actual Average Record
Temperature  
Mean Temperature 56 °F -  
Max Temperature 64 °F 62 °F 77 °F (2008)
Min Temperature 48 °F 47 °F 30 °F (2012)
Degree Days  
Heating Degree Days 9    
Growing Degree Days 6 (Base 50)    
Moisture  
Dew Point 51 °F    
Average Humidity 81    
Maximum Humidity 97    
Minimum Humidity 63    
Precipitation  
Precipitation 0.00 in - - ()
Sea Level Pressure  
Sea Level Pressure 30.07 in    
Wind  
Wind Speed 5 mph ()    
Max Wind Speed 8 mph    
Max Gust Speed -    
Visibility 9.9 miles    
Events Rain    
Averages and records for this station are not official NWS values.
T = Trace of Precipitation, MM = Missing Value Source: Averaged Metar Reports

Daily Weather History Graph

Daily Weather History Graph

Search for Another Location

Airport or City:

Astronomy

Oct. 13, 2019 Rise Set
Actual Time 7:04 AM EDT 6:20 PM EDT
Civil Twilight 6:37 AM EDT 6:47 PM EDT
Nautical Twilight 6:05 AM EDT 7:18 PM EDT
Astronomical Twilight 5:34 AM EDT 7:50 PM EDT
Moon 6:41 PM EDT (10/13) 6:36 AM EDT (10/13)
Length of Visible Light 12h 09m
Length of Day
11h 15m
Full, 100% of the Moon is Illuminated
Oct 13
Full
Oct 13
Full
Oct 21
Last Quarter
Oct 27
New
Nov 4
First Quarter

Hourly Weather History & Observations

Time (EDT) Temp. Dew Point Humidity Pressure Visibility Wind Dir Wind Speed Gust Speed Precip Events Conditions
12:56 AM 55.0 °F 50.0 °F 83% 30.01 in 10.0 mi WNW 5.8 mph - N/A   Clear
1:56 AM 54.0 °F 50.0 °F 86% 30.02 in 10.0 mi West 5.8 mph - N/A   Clear
2:56 AM 53.1 °F 50.0 °F 89% 30.03 in 10.0 mi West 5.8 mph - N/A   Clear
3:56 AM 51.1 °F 48.9 °F 92% 30.04 in 10.0 mi West 4.6 mph - N/A   Clear
4:56 AM 50.0 °F 48.9 °F 96% 30.06 in 10.0 mi West 4.6 mph - N/A   Clear
5:56 AM 48.9 °F 48.0 °F 97% 30.07 in 10.0 mi WNW 5.8 mph - N/A   Clear
6:56 AM 48.0 °F 46.9 °F 96% 30.10 in 10.0 mi West 5.8 mph - N/A   Clear
7:56 AM 48.9 °F 48.0 °F 97% 30.12 in 10.0 mi WNW 6.9 mph - N/A   Clear
8:56 AM 57.0 °F 50.0 °F 77% 30.12 in 10.0 mi NNW 5.8 mph - N/A   Clear
9:56 AM 60.1 °F 50.0 °F 69% 30.13 in 10.0 mi North 6.9 mph - N/A   Clear
10:56 AM 63.0 °F 51.1 °F 65% 30.14 in 10.0 mi NNW 5.8 mph - N/A   Clear
11:56 AM 62.1 °F 50.0 °F 65% 30.12 in 10.0 mi NE 5.8 mph - N/A   Mostly Cloudy
12:56 PM 62.1 °F 51.1 °F 67% 30.11 in 10.0 mi ESE 8.1 mph - N/A   Partly Cloudy
1:56 PM 63.0 °F 51.1 °F 65% 30.10 in 10.0 mi SSE 6.9 mph - N/A   Clear
2:15 PM 64.4 °F 51.8 °F 64% 30.08 in 10.0 mi East 4.6 mph - N/A   Mostly Cloudy
2:56 PM 63.0 °F 50.0 °F 63% 30.08 in 10.0 mi ESE 8.1 mph - N/A   Mostly Cloudy
3:56 PM 61.0 °F 51.1 °F 70% 30.08 in 10.0 mi SE 5.8 mph - N/A   Mostly Cloudy
4:56 PM 60.1 °F 51.1 °F 72% 30.07 in 10.0 mi SE 4.6 mph - N/A   Overcast
5:56 PM 59.0 °F 52.0 °F 78% 30.08 in 10.0 mi SSE 8.1 mph - N/A   Overcast
6:56 PM 57.9 °F 52.0 °F 81% 30.07 in 10.0 mi SSE 3.5 mph - N/A   Overcast
7:56 PM 59.0 °F 54.0 °F 83% 30.07 in 10.0 mi SSE 3.5 mph - 0.00 in Rain Light Rain
8:56 PM 57.9 °F 55.9 °F 93% 30.06 in 10.0 mi SSE 5.8 mph - 0.00 in   Overcast
9:56 PM 57.9 °F 55.0 °F 90% 30.05 in 10.0 mi SE 4.6 mph - N/A   Overcast
10:45 PM 57.2 °F 55.4 °F 94% 30.04 in 10.0 mi SE 3.5 mph - N/A   Overcast
10:56 PM 57.9 °F 55.0 °F 90% 30.04 in 7.0 mi South 4.6 mph - N/A   Overcast
11:56 PM 55.9 °F 54.0 °F 93% 30.04 in 10.0 mi Calm Calm - 0.00 in Rain Light Rain